TimeEDT,TemperatureF,Dew PointF,Humidity,Sea Level PressureIn,VisibilityMPH,Wind Direction,Wind SpeedMPH,Gust SpeedMPH,PrecipitationIn,Events,Conditions,WindDirDegrees,DateUTC
12:53 AM,37.0,23.0,57,30.28,10.0,NW,5.8,-,N/A,,Clear,310,2013-03-29 04:53:00
1:53 AM,36.0,21.9,57,30.28,10.0,NW,3.5,-,N/A,,Clear,320,2013-03-29 05:53:00
2:53 AM,30.0,21.0,69,30.28,10.0,NW,3.5,-,N/A,,Clear,320,2013-03-29 06:53:00
3:53 AM,28.9,19.9,69,30.28,10.0,West,5.8,-,N/A,,Clear,270,2013-03-29 07:53:00
4:53 AM,28.9,21.0,72,30.28,10.0,West,6.9,-,N/A,,Clear,280,2013-03-29 08:53:00
5:53 AM,27.0,19.9,75,30.28,10.0,Calm,Calm,-,N/A,,Clear,0,2013-03-29 09:53:00
6:53 AM,27.0,19.0,72,30.29,10.0,Calm,Calm,-,N/A,,Clear,0,2013-03-29 10:53:00
7:53 AM,28.0,19.9,72,30.30,10.0,Calm,Calm,-,N/A,,Clear,0,2013-03-29 11:53:00
8:53 AM,36.0,21.9,57,30.30,10.0,NNW,4.6,-,N/A,,Clear,330,2013-03-29 12:53:00
9:53 AM,39.9,19.9,45,30.30,10.0,NNW,9.2,-,N/A,,Clear,330,2013-03-29 13:53:00
10:53 AM,43.0,19.9,40,30.30,10.0,North,6.9,-,N/A,,Clear,350,2013-03-29 14:53:00
11:53 AM,44.1,18.0,35,30.29,10.0,NNW,4.6,-,N/A,,Clear,330,2013-03-29 15:53:00
12:53 PM,48.0,17.1,29,30.28,10.0,Variable,4.6,-,N/A,,Clear,0,2013-03-29 16:53:00
1:53 PM,50.0,19.0,29,30.26,10.0,Calm,Calm,-,N/A,,Clear,0,2013-03-29 17:53:00
2:53 PM,50.0,18.0,28,30.24,10.0,WNW,5.8,-,N/A,,Clear,300,2013-03-29 18:53:00
3:53 PM,52.0,19.0,27,30.22,10.0,West,10.4,16.1,N/A,,Clear,280,2013-03-29 19:53:00
4:53 PM,52.0,18.0,26,30.21,10.0,West,4.6,-,N/A,,Partly Cloudy,280,2013-03-29 20:53:00
5:53 PM,53.1,18.0,25,30.21,10.0,WNW,9.2,-,N/A,,Overcast,300,2013-03-29 21:53:00
6:53 PM,50.0,17.1,27,30.21,10.0,WNW,8.1,-,N/A,,Mostly Cloudy,300,2013-03-29 22:53:00
7:53 PM,46.9,19.0,33,30.22,10.0,WNW,3.5,-,N/A,,Partly Cloudy,300,2013-03-29 23:53:00
8:53 PM,36.0,23.0,59,30.22,10.0,NW,3.5,-,N/A,,Clear,320,2013-03-30 00:53:00
9:53 PM,32.0,21.9,66,30.23,10.0,Calm,Calm,-,N/A,,Clear,0,2013-03-30 01:53:00
10:53 PM,30.0,21.0,69,30.24,10.0,Calm,Calm,-,N/A,,Clear,0,2013-03-30 02:53:00
11:53 PM,32.0,21.9,66,30.23,10.0,WNW,6.9,-,N/A,,Clear,300,2013-03-30 03:53:00